Dallas/Ft Worth, TX

4:24 AM CDT on June 25, 2017 (GMT -0500)
Dallas-Fort Worth International

Weather History for KDFW - July, 2012

Change the Weather History Date:

Sunday, July 15, 2012

  Actual Average Record
Temperature  
Mean Temperature 82 °F 85 °F  
Max Temperature 91 °F 96 °F 107 °F (1978)
Min Temperature 73 °F 75 °F 59 °F (1967)
Degree Days  
Heating Degree Days 0 0  
Month to date heating degree days 0 0  
Since 1 June heating degree days 0 0  
Since 1 July heating degree days 0 0  
Cooling Degree Days 17 20  
Month to date cooling degree days 315 295  
Year to date cooling degree days 1587 1208  
Since 1 June cooling degree days 900 786  
Growing Degree Days 32 (Base 50)    
Moisture  
Dew Point 67 °F    
Average Humidity 69    
Maximum Humidity 87    
Minimum Humidity 50    
Precipitation  
Precipitation T in 0.07 in 1.53 in (1900)
Month to date precipitation 0.07 1.26  
Year to date precipitation 22.59 21.30  
Sea Level Pressure  
Sea Level Pressure 29.95 in    
Wind  
Wind Speed 6 mph (SE)    
Max Wind Speed 18 mph    
Max Gust Speed 23 mph    
Visibility 10 miles    
Events Rain , Thunderstorm    
T = Trace of Precipitation, MM = Missing Value Source: NWS Daily Summary

Daily Weather History Graph

Daily Weather History Graph

Search for Another Location

Airport or City:

Trip Planner

Search our weather history database for the weather conditions in past years. The results will help you decide how hot, cold, wet, or windy it might be!

Date:

Astronomy

Jul. 15, 2012 Rise Set
Actual Time 6:30 AM CDT 8:37 PM CDT
Civil Twilight 6:02 AM CDT 9:05 PM CDT
Nautical Twilight 5:28 AM CDT 9:39 PM CDT
Astronomical Twilight 4:52 AM CDT 10:15 PM CDT
Moon 3:28 AM CDT (7/15) 5:54 PM CDT (7/15)
Length of Visible Light 15h 02m
Length of Day
14h 06m
Waning Crescent, 11% of the Moon is Illuminated
Jul 15
Waning Crescent
Jul 18
New
Jul 26
First Quarter
Aug 1
Full
Aug 9
Last Quarter

Hourly Weather History & Observations

Time (CDT) Temp. Heat Index Dew Point Humidity Pressure Visibility Wind Dir Wind Speed Gust Speed Precip Events Conditions
12:53 AM 75.9 °F - 66.9 °F 74% 29.95 in 10.0 mi SE 4.6 mph - N/A   Scattered Clouds
1:53 AM 75.9 °F - 66.9 °F 74% 29.95 in 10.0 mi SSE 3.5 mph - N/A   Scattered Clouds
2:53 AM 75.0 °F - 68.0 °F 79% 29.95 in 10.0 mi ESE 4.6 mph - N/A   Mostly Cloudy
3:53 AM 75.0 °F - 68.0 °F 79% 29.94 in 10.0 mi Calm Calm - N/A   Scattered Clouds
4:53 AM 73.9 °F - 68.0 °F 82% 29.95 in 10.0 mi Calm Calm - N/A   Scattered Clouds
5:53 AM 73.9 °F - 69.1 °F 85% 29.95 in 10.0 mi East 6.9 mph - N/A   Scattered Clouds
6:53 AM 73.0 °F - 66.9 °F 81% 29.97 in 10.0 mi ESE 6.9 mph - N/A   Scattered Clouds
7:53 AM 75.0 °F - 66.9 °F 76% 29.99 in 10.0 mi East 5.8 mph - N/A   Mostly Cloudy
8:53 AM 78.1 °F - 68.0 °F 71% 30.01 in 10.0 mi East 5.8 mph - N/A   Mostly Cloudy
9:53 AM 81.0 °F 83.8 °F 68.0 °F 65% 30.01 in 10.0 mi Variable 4.6 mph - N/A   Mostly Cloudy
10:53 AM 84.0 °F 87.8 °F 69.1 °F 61% 30.00 in 10.0 mi SSE 4.6 mph - N/A   Scattered Clouds
11:53 AM 87.1 °F 91.3 °F 69.1 °F 55% 29.99 in 10.0 mi Variable 4.6 mph - N/A   Scattered Clouds
12:53 PM 90.0 °F 93.6 °F 68.0 °F 48% 29.96 in 10.0 mi NE 8.1 mph - N/A   Mostly Cloudy
1:37 PM 89.6 °F 93.4 °F 68.0 °F 49% 29.97 in 10.0 mi Variable 6.9 mph - N/A Thunderstorm Thunderstorm
1:53 PM 84.9 °F 87.1 °F 66.0 °F 53% 29.94 in 10.0 mi East 13.8 mph 23.0 mph 0.00 in Rain , Thunderstorm Light Thunderstorms and Rain
2:53 PM 82.9 °F 85.4 °F 66.9 °F 58% 29.94 in 10.0 mi ENE 15.0 mph 21.9 mph 0.00 in Rain , Thunderstorm Light Thunderstorms and Rain
3:20 PM 82.4 °F 83.9 °F 64.4 °F 54% 29.95 in 10.0 mi ENE 10.4 mph - 0.00 in   Mostly Cloudy
3:53 PM 87.1 °F 88.3 °F 64.0 °F 46% 29.91 in 10.0 mi East 8.1 mph - 0.00 in   Mostly Cloudy
4:53 PM 82.0 °F 84.5 °F 66.9 °F 60% 29.92 in 10.0 mi SSW 13.8 mph - N/A   Mostly Cloudy
5:53 PM 82.9 °F 85.4 °F 66.9 °F 58% 29.90 in 10.0 mi South 10.4 mph - N/A   Mostly Cloudy
6:53 PM 80.1 °F 82.3 °F 66.9 °F 64% 29.91 in 10.0 mi SSE 4.6 mph - 0.00 in   Mostly Cloudy
7:53 PM 78.8 °F - 69.8 °F 74% 29.95 in 10.0 mi South 6.9 mph - N/A   Mostly Cloudy
8:53 PM 77.0 °F - 70.0 °F 79% 29.91 in 10.0 mi SE 8.1 mph - N/A   Mostly Cloudy
9:53 PM 75.9 °F - 68.0 °F 76% 29.94 in 10.0 mi SE 4.6 mph - N/A   Mostly Cloudy
10:53 PM 75.0 °F - 68.0 °F 79% 29.95 in 10.0 mi SE 5.8 mph - N/A   Mostly Cloudy
11:53 PM 73.9 °F - 68.0 °F 82% 29.94 in 10.0 mi SSE 4.6 mph - N/A   Mostly Cloudy